Вернуться в каталог

THORAD DELTA 1 DEB

АктивенSSO
NORAD 42625·DEBRIS·🇺🇸 United States

Запущен Nov 15, 1974 с Vandenberg Space Force Base

Loading…

Ближайшие Пролёты (ближайшие 24 часа)

TLE

СвежийSource: Space-Track

Эпоха: Sep 11, 2026, 21:26 UTC

1 42625U 74089GS  26254.89338522  .00000057  00000-0  72475-3 0  9996
2 42625 102.0449 230.8375 0005248  29.7604 358.0860 12.44295626582776

Отслеживайте THORAD DELTA 1 DEB в реальном времени с AllMySat

Download on the App Store